sat.trackr.live / text

‹ back to catalog

STARLINK-4111

NORAD 53159 · 2022-083AD

PAYLOAD ACTIVE UNKNOWN

§ Identity

Operator
Country
US
Launch date
2022-07-17
Launch site
AFETR
Launch vehicle
Mass (kg)
RCS (m²)

Purposes: comms

External: N2YO · Heavens-Above · Gunter

§ Orbital elements

Epoch: 2026-05-24T14:52:33.102048Z

Period
95.44 min
Inclination
53.2134°
Eccentricity
0.0001221
Mean motion
15.08836557 rev/d
Perigee alt
538.9 km
Apogee alt
540.6 km
Semi-major
6,917.9 km
B*
2.7966e-5
RAAN
183.2538°
Arg perigee
80.9658°
Mean anomaly
279.1473°
Rev number
21,282

§ Raw data

STARLINK-41111 53159U 22083AD  26144.61982757  .00000157  00000+0  27966-4 0  99962 53159  53.2134 183.2538 0001221  80.9658 279.1473 15.08836557212821

JSON: /api/v1/satellites/53159 · /tle

For live sub-satellite position, see the globe view (requires WebGL).

§ Visibility from observer

Set your observer location to see the next 7 days of passes ≥ 10°. The values pass through the URL so the page stays shareable.

No JS? Fill the form by hand. The geolocation button needs JavaScript.